TimeEDT,TemperatureF,Dew PointF,Humidity,Sea Level PressureIn,VisibilityMPH,Wind Direction,Wind SpeedMPH,Gust SpeedMPH,PrecipitationIn,Events,Conditions,WindDirDegrees,DateUTC
12:53 AM,72.0,68.0,87,30.15,10.0,ENE,6.9,-,N/A,,Clear,70,2013-04-17 04:53:00
1:53 AM,70.0,66.9,90,30.14,10.0,ENE,4.6,-,N/A,,Clear,70,2013-04-17 05:53:00
2:53 AM,66.9,66.0,97,30.13,10.0,ENE,4.6,-,N/A,,Clear,60,2013-04-17 06:53:00
3:53 AM,66.0,64.9,96,30.12,10.0,NNE,4.6,-,N/A,,Clear,30,2013-04-17 07:53:00
4:53 AM,66.0,64.9,96,30.11,8.0,ENE,3.5,-,N/A,,Clear,60,2013-04-17 08:53:00
5:53 AM,66.0,64.9,96,30.12,6.0,NNE,5.8,-,N/A,,Clear,30,2013-04-17 09:53:00
6:53 AM,66.0,64.9,96,30.13,9.0,NE,5.8,-,N/A,,Clear,40,2013-04-17 10:53:00
7:53 AM,68.0,66.0,93,30.15,10.0,NE,6.9,-,N/A,,Clear,50,2013-04-17 11:53:00
8:53 AM,73.9,68.0,82,30.15,10.0,ENE,11.5,-,N/A,,Clear,70,2013-04-17 12:53:00
10:53 AM,81.0,64.9,58,30.14,10.0,East,13.8,-,N/A,,Clear,80,2013-04-17 14:53:00
11:53 AM,84.0,64.9,53,30.12,10.0,ENE,12.7,-,N/A,,Clear,70,2013-04-17 15:53:00
12:53 PM,86.0,64.0,48,30.10,10.0,East,11.5,18.4,N/A,,Partly Cloudy,80,2013-04-17 16:53:00
1:53 PM,87.1,63.0,44,30.08,10.0,NE,11.5,20.7,N/A,,Scattered Clouds,50,2013-04-17 17:53:00
2:53 PM,88.0,61.0,40,30.06,10.0,ENE,12.7,19.6,N/A,,Clear,70,2013-04-17 18:53:00
3:53 PM,89.1,60.1,38,30.05,10.0,NE,10.4,-,N/A,,Partly Cloudy,40,2013-04-17 19:53:00
4:53 PM,89.1,59.0,36,30.04,10.0,ENE,6.9,-,N/A,,Clear,60,2013-04-17 20:53:00
5:53 PM,88.0,59.0,37,30.03,10.0,ENE,6.9,-,N/A,,Clear,60,2013-04-17 21:53:00
6:53 PM,84.9,60.1,43,30.04,10.0,East,9.2,-,N/A,,Scattered Clouds,80,2013-04-17 22:53:00
7:53 PM,80.1,62.1,54,30.04,10.0,East,6.9,-,N/A,,Clear,90,2013-04-17 23:53:00
8:53 PM,78.1,63.0,60,30.06,10.0,East,6.9,-,N/A,,Clear,100,2013-04-18 00:53:00
9:53 PM,75.9,63.0,64,30.08,10.0,East,10.4,-,N/A,,Clear,80,2013-04-18 01:53:00
10:53 PM,73.9,63.0,68,30.09,10.0,East,6.9,-,N/A,,Clear,80,2013-04-18 02:53:00
11:53 PM,72.0,64.0,76,30.08,10.0,East,5.8,-,N/A,,Clear,90,2013-04-18 03:53:00